Time,TemperatureF,DewpointF,PressureIn,WindDirection,WindDirectionDegrees,WindSpeedMPH,WindSpeedGustMPH,Humidity,HourlyPrecipIn,Conditions,Clouds,dailyrainin,SoftwareType,DateUTC
2013-02-18 00:02:00,52.9,30.9,29.62,North,-999,-999.0,-999.0,43,-99.99,,,-99.99,meteohub,2013-02-18 06:02:00,
2013-02-18 00:07:00,52.9,30.9,29.62,North,-999,-999.0,-999.0,43,-99.99,,,-99.99,meteohub,2013-02-18 06:07:00,
2013-02-18 00:14:00,52.7,30.7,29.62,North,-999,-999.0,-999.0,43,-99.99,,,-99.99,meteohub,2013-02-18 06:14:00,
2013-02-18 00:20:00,52.7,30.7,29.62,North,-999,-999.0,-999.0,43,-99.99,,,-99.99,meteohub,2013-02-18 06:20:00,
2013-02-18 00:27:00,52.7,30.7,29.61,North,-999,-999.0,-999.0,43,-99.99,,,-99.99,meteohub,2013-02-18 06:27:00,
2013-02-18 00:32:00,52.7,30.7,29.61,North,-999,-999.0,-999.0,43,-99.99,,,-99.99,meteohub,2013-02-18 06:32:00,
2013-02-18 00:39:00,52.5,30.7,29.61,North,-999,-999.0,-999.0,43,-99.99,,,-99.99,meteohub,2013-02-18 06:39:00,
2013-02-18 00:45:00,52.5,30.7,29.61,North,-999,-999.0,-999.0,43,-99.99,,,-99.99,meteohub,2013-02-18 06:45:00,
2013-02-18 00:51:00,52.5,30.7,29.60,North,-999,-999.0,-999.0,43,-99.99,,,-99.99,meteohub,2013-02-18 06:51:00,
2013-02-18 00:57:00,52.5,31.3,29.60,North,-999,-999.0,-999.0,44,-99.99,,,-99.99,meteohub,2013-02-18 06:57:00,
2013-02-18 01:03:00,52.3,31.1,29.60,North,-999,-999.0,-999.0,44,-99.99,,,-99.99,meteohub,2013-02-18 07:03:00,
2013-02-18 01:09:00,52.3,31.1,29.60,North,-999,-999.0,-999.0,44,-99.99,,,-99.99,meteohub,2013-02-18 07:09:00,
2013-02-18 01:15:00,52.3,31.1,29.59,North,-999,-999.0,-999.0,44,-99.99,,,-99.99,meteohub,2013-02-18 07:15:00,
2013-02-18 01:21:00,52.5,31.3,29.59,North,-999,-999.0,-999.0,44,-99.99,,,-99.99,meteohub,2013-02-18 07:21:00,
2013-02-18 01:27:00,52.3,31.1,29.59,North,-999,-999.0,-999.0,44,-99.99,,,-99.99,meteohub,2013-02-18 07:27:00,
2013-02-18 01:32:00,52.3,31.1,29.59,North,-999,-999.0,-999.0,44,-99.99,,,-99.99,meteohub,2013-02-18 07:32:00,
2013-02-18 01:37:00,52.3,31.1,29.59,North,-999,-999.0,-999.0,44,-99.99,,,-99.99,meteohub,2013-02-18 07:37:00,
2013-02-18 01:42:00,52.2,30.9,29.58,North,-999,-999.0,-999.0,44,-99.99,,,-99.99,meteohub,2013-02-18 07:42:00,
2013-02-18 01:47:00,52.3,31.1,29.58,North,-999,-999.0,-999.0,44,-99.99,,,-99.99,meteohub,2013-02-18 07:47:00,
2013-02-18 01:52:00,52.0,31.3,29.57,North,-999,-999.0,-999.0,45,-99.99,,,-99.99,meteohub,2013-02-18 07:52:00,
2013-02-18 01:58:00,52.0,31.3,29.57,North,-999,-999.0,-999.0,45,-99.99,,,-99.99,meteohub,2013-02-18 07:58:00,
2013-02-18 02:04:00,52.0,31.3,29.56,North,-999,-999.0,-999.0,45,-99.99,,,-99.99,meteohub,2013-02-18 08:04:00,
2013-02-18 02:10:00,52.2,31.5,29.56,North,-999,-999.0,-999.0,45,-99.99,,,-99.99,meteohub,2013-02-18 08:10:00,
2013-02-18 02:17:00,52.2,32.0,29.56,North,-999,-999.0,-999.0,46,-99.99,,,-99.99,meteohub,2013-02-18 08:17:00,
2013-02-18 02:22:00,52.0,31.8,29.55,North,-999,-999.0,-999.0,46,-99.99,,,-99.99,meteohub,2013-02-18 08:22:00,
2013-02-18 02:27:00,52.2,32.0,29.55,North,-999,-999.0,-999.0,46,-99.99,,,-99.99,meteohub,2013-02-18 08:27:00,
2013-02-18 02:32:00,52.2,32.0,29.55,North,-999,-999.0,-999.0,46,-99.99,,,-99.99,meteohub,2013-02-18 08:32:00,
2013-02-18 02:37:00,52.3,32.2,29.54,North,-999,-999.0,-999.0,46,-99.99,,,-99.99,meteohub,2013-02-18 08:37:00,
2013-02-18 02:44:00,52.7,32.5,29.54,North,-999,-999.0,-999.0,46,-99.99,,,-99.99,meteohub,2013-02-18 08:44:00,
2013-02-18 02:50:00,52.7,32.5,29.53,North,-999,-999.0,-999.0,46,-99.99,,,-99.99,meteohub,2013-02-18 08:50:00,
2013-02-18 02:56:00,52.7,32.5,29.53,North,-999,-999.0,-999.0,46,-99.99,,,-99.99,meteohub,2013-02-18 08:56:00,
2013-02-18 03:02:00,52.5,32.9,29.53,North,-999,-999.0,-999.0,47,-99.99,,,-99.99,meteohub,2013-02-18 09:02:00,
2013-02-18 03:09:00,52.7,33.1,29.53,North,-999,-999.0,-999.0,47,-99.99,,,-99.99,meteohub,2013-02-18 09:09:00,
2013-02-18 03:15:00,52.5,32.9,29.53,North,-999,-999.0,-999.0,47,-99.99,,,-99.99,meteohub,2013-02-18 09:15:00,
2013-02-18 03:21:00,52.3,33.3,29.52,North,-999,-999.0,-999.0,48,-99.99,,,-99.99,meteohub,2013-02-18 09:21:00,
2013-02-18 03:27:00,52.3,33.3,29.52,North,-999,-999.0,-999.0,48,-99.99,,,-99.99,meteohub,2013-02-18 09:27:00,
2013-02-18 03:33:00,52.3,33.3,29.52,North,-999,-999.0,-999.0,48,-99.99,,,-99.99,meteohub,2013-02-18 09:33:00,
2013-02-18 03:39:00,52.2,33.6,29.51,North,-999,-999.0,-999.0,49,-99.99,,,-99.99,meteohub,2013-02-18 09:39:00,
2013-02-18 03:46:00,52.2,33.6,29.51,North,-999,-999.0,-999.0,49,-99.99,,,-99.99,meteohub,2013-02-18 09:46:00,
2013-02-18 03:52:00,52.2,33.6,29.50,North,-999,-999.0,-999.0,49,-99.99,,,-99.99,meteohub,2013-02-18 09:52:00,
2013-02-18 03:58:00,52.2,34.2,29.50,North,-999,-999.0,-999.0,50,-99.99,,,-99.99,meteohub,2013-02-18 09:58:00,
2013-02-18 04:04:00,52.0,34.3,29.50,North,-999,-999.0,-999.0,51,-99.99,,,-99.99,meteohub,2013-02-18 10:04:00,
2013-02-18 04:10:00,52.2,34.5,29.50,North,-999,-999.0,-999.0,51,-99.99,,,-99.99,meteohub,2013-02-18 10:10:00,
2013-02-18 04:16:00,52.0,34.3,29.50,North,-999,-999.0,-999.0,51,-99.99,,,-99.99,meteohub,2013-02-18 10:16:00,
2013-02-18 04:22:00,51.8,34.7,29.50,North,-999,-999.0,-999.0,52,-99.99,,,-99.99,meteohub,2013-02-18 10:22:00,
2013-02-18 04:27:00,51.8,35.2,29.50,North,-999,-999.0,-999.0,53,-99.99,,,-99.99,meteohub,2013-02-18 10:27:00,
2013-02-18 04:32:00,51.8,35.2,29.49,North,-999,-999.0,-999.0,53,-99.99,,,-99.99,meteohub,2013-02-18 10:32:00,
2013-02-18 04:37:00,51.8,35.2,29.49,North,-999,-999.0,-999.0,53,-99.99,,,-99.99,meteohub,2013-02-18 10:37:00,
2013-02-18 04:42:00,52.0,35.8,29.49,North,-999,-999.0,-999.0,54,-99.99,,,-99.99,meteohub,2013-02-18 10:42:00,
2013-02-18 04:50:00,52.0,36.3,29.49,North,-999,-999.0,-999.0,55,-99.99,,,-99.99,meteohub,2013-02-18 10:50:00,
2013-02-18 04:56:00,52.2,36.9,29.50,North,-999,-999.0,-999.0,56,-99.99,,,-99.99,meteohub,2013-02-18 10:56:00,
2013-02-18 05:02:00,52.2,36.9,29.50,North,-999,-999.0,-999.0,56,-99.99,,,-99.99,meteohub,2013-02-18 11:02:00,
2013-02-18 05:07:00,52.0,37.2,29.50,North,-999,-999.0,-999.0,57,-99.99,,,-99.99,meteohub,2013-02-18 11:07:00,
2013-02-18 05:15:00,52.2,37.8,29.50,North,-999,-999.0,-999.0,58,-99.99,,,-99.99,meteohub,2013-02-18 11:15:00,
2013-02-18 05:21:00,52.2,38.3,29.50,North,-999,-999.0,-999.0,59,-99.99,,,-99.99,meteohub,2013-02-18 11:21:00,
2013-02-18 05:27:00,52.2,38.7,29.49,North,-999,-999.0,-999.0,60,-99.99,,,-99.99,meteohub,2013-02-18 11:27:00,
2013-02-18 05:32:00,52.2,38.7,29.50,North,-999,-999.0,-999.0,60,-99.99,,,-99.99,meteohub,2013-02-18 11:32:00,
2013-02-18 05:39:00,52.2,39.2,29.50,North,-999,-999.0,-999.0,61,-99.99,,,-99.99,meteohub,2013-02-18 11:39:00,
2013-02-18 05:45:00,52.2,39.6,29.50,North,-999,-999.0,-999.0,62,-99.99,,,-99.99,meteohub,2013-02-18 11:45:00,
2013-02-18 05:51:00,52.0,39.7,29.51,North,-999,-999.0,-999.0,63,-99.99,,,-99.99,meteohub,2013-02-18 11:51:00,
2013-02-18 05:57:00,52.0,40.1,29.51,North,-999,-999.0,-999.0,64,-99.99,,,-99.99,meteohub,2013-02-18 11:57:00,
2013-02-18 06:04:00,52.0,40.6,29.51,North,-999,-999.0,-999.0,65,-99.99,,,-99.99,meteohub,2013-02-18 12:04:00,
2013-02-18 06:10:00,52.0,41.0,29.50,North,-999,-999.0,-999.0,66,-99.99,,,-99.99,meteohub,2013-02-18 12:10:00,
2013-02-18 06:16:00,51.8,41.2,29.50,North,-999,-999.0,-999.0,67,-99.99,,,-99.99,meteohub,2013-02-18 12:16:00,
2013-02-18 06:22:00,51.8,41.5,29.51,North,-999,-999.0,-999.0,68,-99.99,,,-99.99,meteohub,2013-02-18 12:22:00,
2013-02-18 06:41:00,51.4,41.9,29.50,North,-999,-999.0,-999.0,70,-99.99,,,-99.99,meteohub,2013-02-18 12:41:00,
2013-02-18 06:47:00,51.4,42.4,29.51,North,-999,-999.0,-999.0,71,-99.99,,,-99.99,meteohub,2013-02-18 12:47:00,
2013-02-18 06:53:00,51.4,42.8,29.51,North,-999,-999.0,-999.0,72,-99.99,,,-99.99,meteohub,2013-02-18 12:53:00,
2013-02-18 06:59:00,51.4,42.8,29.51,North,-999,-999.0,-999.0,72,-99.99,,,-99.99,meteohub,2013-02-18 12:59:00,
2013-02-18 07:05:00,51.6,43.3,29.51,North,-999,-999.0,-999.0,73,-99.99,,,-99.99,meteohub,2013-02-18 13:05:00,
2013-02-18 07:11:00,51.8,43.3,29.51,North,-999,-999.0,-999.0,73,-99.99,,,-99.99,meteohub,2013-02-18 13:11:00,
2013-02-18 07:17:00,52.0,43.5,29.51,North,-999,-999.0,-999.0,73,-99.99,,,-99.99,meteohub,2013-02-18 13:17:00,
2013-02-18 07:22:00,52.0,43.5,29.52,North,-999,-999.0,-999.0,73,-99.99,,,-99.99,meteohub,2013-02-18 13:22:00,
2013-02-18 07:27:00,52.0,43.9,29.51,North,-999,-999.0,-999.0,74,-99.99,,,-99.99,meteohub,2013-02-18 13:27:00,
2013-02-18 07:32:00,52.0,43.9,29.52,North,-999,-999.0,-999.0,74,-99.99,,,-99.99,meteohub,2013-02-18 13:32:00,
2013-02-18 07:37:00,52.0,43.9,29.52,North,-999,-999.0,-999.0,74,-99.99,,,-99.99,meteohub,2013-02-18 13:37:00,
2013-02-18 07:45:00,52.0,44.2,29.52,North,-999,-999.0,-999.0,75,-99.99,,,-99.99,meteohub,2013-02-18 13:45:00,
2013-02-18 07:51:00,52.0,44.2,29.52,North,-999,-999.0,-999.0,75,-99.99,,,-99.99,meteohub,2013-02-18 13:51:00,
2013-02-18 07:57:00,52.0,44.6,29.52,North,-999,-999.0,-999.0,76,-99.99,,,-99.99,meteohub,2013-02-18 13:57:00,
2013-02-18 08:02:00,52.2,44.8,29.52,North,-999,-999.0,-999.0,76,-99.99,,,-99.99,meteohub,2013-02-18 14:02:00,
2013-02-18 08:09:00,52.5,45.1,29.52,North,-999,-999.0,-999.0,76,-99.99,,,-99.99,meteohub,2013-02-18 14:09:00,
2013-02-18 08:15:00,52.9,45.1,29.52,North,-999,-999.0,-999.0,75,-99.99,,,-99.99,meteohub,2013-02-18 14:15:00,
2013-02-18 08:21:00,53.1,45.3,29.52,North,-999,-999.0,-999.0,75,-99.99,,,-99.99,meteohub,2013-02-18 14:21:00,
2013-02-18 08:27:00,53.1,45.3,29.52,North,-999,-999.0,-999.0,75,-99.99,,,-99.99,meteohub,2013-02-18 14:27:00,
2013-02-18 08:34:00,53.4,45.7,29.52,North,-999,-999.0,-999.0,75,-99.99,,,-99.99,meteohub,2013-02-18 14:34:00,
2013-02-18 08:40:00,53.4,45.7,29.52,North,-999,-999.0,-999.0,75,-99.99,,,-99.99,meteohub,2013-02-18 14:40:00,
2013-02-18 08:46:00,53.4,45.7,29.52,North,-999,-999.0,-999.0,75,-99.99,,,-99.99,meteohub,2013-02-18 14:46:00,
2013-02-18 08:52:00,53.4,45.7,29.52,North,-999,-999.0,-999.0,75,-99.99,,,-99.99,meteohub,2013-02-18 14:52:00,
2013-02-18 08:58:00,53.4,46.0,29.52,North,-999,-999.0,-999.0,76,-99.99,,,-99.99,meteohub,2013-02-18 14:58:00,
2013-02-18 09:04:00,53.4,46.0,29.52,North,-999,-999.0,-999.0,76,-99.99,,,-99.99,meteohub,2013-02-18 15:04:00,
2013-02-18 09:11:00,53.6,46.2,29.52,North,-999,-999.0,-999.0,76,-99.99,,,-99.99,meteohub,2013-02-18 15:11:00,
2013-02-18 09:17:00,53.4,46.0,29.52,North,-999,-999.0,-999.0,76,-99.99,,,-99.99,meteohub,2013-02-18 15:17:00,
2013-02-18 09:23:00,53.4,46.0,29.52,North,-999,-999.0,-999.0,76,-99.99,,,-99.99,meteohub,2013-02-18 15:23:00,
2013-02-18 09:29:00,53.4,46.4,29.52,North,-999,-999.0,-999.0,77,-99.99,,,-99.99,meteohub,2013-02-18 15:29:00,
2013-02-18 09:35:00,53.4,46.4,29.52,North,-999,-999.0,-999.0,77,-99.99,,,-99.99,meteohub,2013-02-18 15:35:00,
2013-02-18 09:41:00,53.4,46.8,29.52,North,-999,-999.0,-999.0,78,-99.99,,,-99.99,meteohub,2013-02-18 15:41:00,
2013-02-18 09:47:00,53.4,46.8,29.52,North,-999,-999.0,-999.0,78,-99.99,,,-99.99,meteohub,2013-02-18 15:47:00,
2013-02-18 09:52:00,53.2,46.6,29.52,North,-999,-999.0,-999.0,78,-99.99,,,-99.99,meteohub,2013-02-18 15:52:00,
2013-02-18 09:57:00,53.2,46.9,29.52,North,-999,-999.0,-999.0,79,-99.99,,,-99.99,meteohub,2013-02-18 15:57:00,
2013-02-18 10:02:00,53.2,47.3,29.52,North,-999,-999.0,-999.0,80,-99.99,,,-99.99,meteohub,2013-02-18 16:02:00,
2013-02-18 10:07:00,53.1,47.1,29.52,North,-999,-999.0,-999.0,80,-99.99,,,-99.99,meteohub,2013-02-18 16:07:00,
2013-02-18 10:12:00,52.9,47.3,29.52,North,-999,-999.0,-999.0,81,-99.99,,,-99.99,meteohub,2013-02-18 16:12:00,
2013-02-18 10:18:00,52.7,47.7,29.52,North,-999,-999.0,-999.0,83,-99.99,,,-99.99,meteohub,2013-02-18 16:18:00,
2013-02-18 10:24:00,52.3,47.7,29.52,North,-999,-999.0,-999.0,84,-99.99,,,-99.99,meteohub,2013-02-18 16:24:00,
2013-02-18 10:30:00,52.2,47.8,29.52,North,-999,-999.0,-999.0,85,-99.99,,,-99.99,meteohub,2013-02-18 16:30:00,
2013-02-18 10:37:00,51.8,48.4,29.52,North,-999,-999.0,-999.0,88,-99.99,,,-99.99,meteohub,2013-02-18 16:37:00,
2013-02-18 10:43:00,51.4,48.4,29.52,North,-999,-999.0,-999.0,89,-99.99,,,-99.99,meteohub,2013-02-18 16:43:00,
2013-02-18 10:49:00,51.3,48.7,29.52,North,-999,-999.0,-999.0,91,-99.99,,,-99.99,meteohub,2013-02-18 16:49:00,
2013-02-18 10:55:00,51.1,48.6,29.53,North,-999,-999.0,-999.0,91,-99.99,,,-99.99,meteohub,2013-02-18 16:55:00,
2013-02-18 11:02:00,50.9,48.4,29.53,North,-999,-999.0,-999.0,91,-99.99,,,-99.99,meteohub,2013-02-18 17:02:00,
2013-02-18 11:08:00,50.9,48.7,29.53,North,-999,-999.0,-999.0,92,-99.99,,,-99.99,meteohub,2013-02-18 17:08:00,
2013-02-18 11:14:00,50.9,48.9,29.53,North,-999,-999.0,-999.0,93,-99.99,,,-99.99,meteohub,2013-02-18 17:14:00,
2013-02-18 11:20:00,50.7,47.8,29.55,North,-999,-999.0,-999.0,90,-99.99,,,-99.99,meteohub,2013-02-18 17:20:00,
2013-02-18 11:26:00,45.5,39.4,29.55,North,-999,-999.0,-999.0,79,-99.99,,,-99.99,meteohub,2013-02-18 17:26:00,
2013-02-18 11:32:00,45.5,39.4,29.55,North,-999,-999.0,-999.0,79,-99.99,,,-99.99,meteohub,2013-02-18 17:32:00,
2013-02-18 11:37:00,43.2,38.1,29.56,North,-999,-999.0,-999.0,82,-99.99,,,-99.99,meteohub,2013-02-18 17:37:00,
2013-02-18 11:42:00,42.4,37.6,29.57,North,-999,-999.0,-999.0,83,-99.99,,,-99.99,meteohub,2013-02-18 17:42:00,
2013-02-18 11:47:00,41.9,37.4,29.57,North,-999,-999.0,-999.0,84,-99.99,,,-99.99,meteohub,2013-02-18 17:47:00,
2013-02-18 11:54:00,41.5,37.4,29.57,North,-999,-999.0,-999.0,85,-99.99,,,-99.99,meteohub,2013-02-18 17:54:00,
2013-02-18 12:00:00,41.4,36.9,29.59,North,-999,-999.0,-999.0,84,-99.99,,,-99.99,meteohub,2013-02-18 18:00:00,
2013-02-18 12:06:00,41.4,36.9,29.58,North,-999,-999.0,-999.0,84,-99.99,,,-99.99,meteohub,2013-02-18 18:06:00,
2013-02-18 12:12:00,41.4,36.9,29.57,North,-999,-999.0,-999.0,84,-99.99,,,-99.99,meteohub,2013-02-18 18:12:00,
2013-02-18 12:18:00,41.5,36.7,29.58,North,-999,-999.0,-999.0,83,-99.99,,,-99.99,meteohub,2013-02-18 18:18:00,
2013-02-18 12:25:00,41.4,36.5,29.58,North,-999,-999.0,-999.0,83,-99.99,,,-99.99,meteohub,2013-02-18 18:25:00,
2013-02-18 12:31:00,41.4,36.9,29.60,North,-999,-999.0,-999.0,84,-99.99,,,-99.99,meteohub,2013-02-18 18:31:00,
2013-02-18 12:37:00,41.2,36.1,29.60,North,-999,-999.0,-999.0,82,-99.99,,,-99.99,meteohub,2013-02-18 18:37:00,
2013-02-18 12:43:00,41.2,36.1,29.61,North,-999,-999.0,-999.0,82,-99.99,,,-99.99,meteohub,2013-02-18 18:43:00,
2013-02-18 12:50:00,41.2,35.8,29.61,North,-999,-999.0,-999.0,81,-99.99,,,-99.99,meteohub,2013-02-18 18:50:00,
2013-02-18 12:56:00,41.2,35.4,29.61,North,-999,-999.0,-999.0,80,-99.99,,,-99.99,meteohub,2013-02-18 18:56:00,
2013-02-18 13:02:00,41.2,35.4,29.61,North,-999,-999.0,-999.0,80,-99.99,,,-99.99,meteohub,2013-02-18 19:02:00,
2013-02-18 13:08:00,41.4,35.4,29.60,North,-999,-999.0,-999.0,79,-99.99,,,-99.99,meteohub,2013-02-18 19:08:00,
2013-02-18 13:14:00,41.4,35.4,29.61,North,-999,-999.0,-999.0,79,-99.99,,,-99.99,meteohub,2013-02-18 19:14:00,
2013-02-18 13:20:00,41.5,35.2,29.62,North,-999,-999.0,-999.0,78,-99.99,,,-99.99,meteohub,2013-02-18 19:20:00,
2013-02-18 13:26:00,41.5,34.9,29.61,North,-999,-999.0,-999.0,77,-99.99,,,-99.99,meteohub,2013-02-18 19:26:00,
2013-02-18 13:32:00,41.5,34.5,29.61,North,-999,-999.0,-999.0,76,-99.99,,,-99.99,meteohub,2013-02-18 19:32:00,
2013-02-18 13:39:00,41.9,34.2,29.61,North,-999,-999.0,-999.0,74,-99.99,,,-99.99,meteohub,2013-02-18 19:39:00,
2013-02-18 13:45:00,42.1,33.8,29.61,North,-999,-999.0,-999.0,72,-99.99,,,-99.99,meteohub,2013-02-18 19:45:00,
2013-02-18 13:51:00,42.4,34.0,29.61,North,-999,-999.0,-999.0,72,-99.99,,,-99.99,meteohub,2013-02-18 19:51:00,
2013-02-18 13:57:00,42.4,33.6,29.61,North,-999,-999.0,-999.0,71,-99.99,,,-99.99,meteohub,2013-02-18 19:57:00,
2013-02-18 14:02:00,42.6,33.4,29.61,North,-999,-999.0,-999.0,70,-99.99,,,-99.99,meteohub,2013-02-18 20:02:00,
2013-02-18 14:07:00,43.0,33.4,29.62,North,-999,-999.0,-999.0,69,-99.99,,,-99.99,meteohub,2013-02-18 20:07:00,
2013-02-18 14:13:00,43.5,34.0,29.62,North,-999,-999.0,-999.0,69,-99.99,,,-99.99,meteohub,2013-02-18 20:13:00,
2013-02-18 14:19:00,43.9,34.0,29.62,North,-999,-999.0,-999.0,68,-99.99,,,-99.99,meteohub,2013-02-18 20:19:00,
2013-02-18 14:25:00,44.4,33.8,29.63,North,-999,-999.0,-999.0,66,-99.99,,,-99.99,meteohub,2013-02-18 20:25:00,
2013-02-18 14:31:00,44.6,34.0,29.64,North,-999,-999.0,-999.0,66,-99.99,,,-99.99,meteohub,2013-02-18 20:31:00,
2013-02-18 14:37:00,44.4,32.5,29.64,North,-999,-999.0,-999.0,63,-99.99,,,-99.99,meteohub,2013-02-18 20:37:00,
2013-02-18 14:42:00,44.2,32.9,29.65,North,-999,-999.0,-999.0,64,-99.99,,,-99.99,meteohub,2013-02-18 20:42:00,
2013-02-18 14:47:00,43.2,32.9,29.66,North,-999,-999.0,-999.0,67,-99.99,,,-99.99,meteohub,2013-02-18 20:47:00,
2013-02-18 14:53:00,41.5,32.9,29.66,North,-999,-999.0,-999.0,71,-99.99,,,-99.99,meteohub,2013-02-18 20:53:00,
2013-02-18 14:59:00,41.0,32.7,29.68,North,-999,-999.0,-999.0,72,-99.99,,,-99.99,meteohub,2013-02-18 20:59:00,
2013-02-18 15:05:00,39.9,31.6,29.67,North,-999,-999.0,-999.0,72,-99.99,,,-99.99,meteohub,2013-02-18 21:05:00,
2013-02-18 15:12:00,39.2,31.3,29.68,North,-999,-999.0,-999.0,73,-99.99,,,-99.99,meteohub,2013-02-18 21:12:00,
2013-02-18 15:18:00,38.7,30.7,29.70,North,-999,-999.0,-999.0,73,-99.99,,,-99.99,meteohub,2013-02-18 21:18:00,
2013-02-18 15:24:00,38.8,31.3,29.70,North,-999,-999.0,-999.0,74,-99.99,,,-99.99,meteohub,2013-02-18 21:24:00,
2013-02-18 15:31:00,38.7,30.7,29.71,North,-999,-999.0,-999.0,73,-99.99,,,-99.99,meteohub,2013-02-18 21:31:00,
2013-02-18 15:37:00,37.8,29.8,29.72,North,-999,-999.0,-999.0,73,-99.99,,,-99.99,meteohub,2013-02-18 21:37:00,
2013-02-18 15:42:00,37.6,29.7,29.72,North,-999,-999.0,-999.0,73,-99.99,,,-99.99,meteohub,2013-02-18 21:42:00,
2013-02-18 15:47:00,37.4,29.5,29.73,North,-999,-999.0,-999.0,73,-99.99,,,-99.99,meteohub,2013-02-18 21:47:00,
2013-02-18 15:52:00,37.4,29.5,29.73,North,-999,-999.0,-999.0,73,-99.99,,,-99.99,meteohub,2013-02-18 21:52:00,
2013-02-18 15:57:00,37.2,29.7,29.74,North,-999,-999.0,-999.0,74,-99.99,,,-99.99,meteohub,2013-02-18 21:57:00,
2013-02-18 16:04:00,37.0,29.8,29.74,North,-999,-999.0,-999.0,75,-99.99,,,-99.99,meteohub,2013-02-18 22:04:00,
2013-02-18 16:10:00,36.7,29.8,29.75,North,-999,-999.0,-999.0,76,-99.99,,,-99.99,meteohub,2013-02-18 22:10:00,
2013-02-18 16:17:00,36.5,28.9,29.76,North,-999,-999.0,-999.0,74,-99.99,,,-99.99,meteohub,2013-02-18 22:17:00,
2013-02-18 16:22:00,36.5,28.0,29.76,North,-999,-999.0,-999.0,71,-99.99,,,-99.99,meteohub,2013-02-18 22:22:00,
2013-02-18 16:29:00,36.5,27.7,29.76,North,-999,-999.0,-999.0,70,-99.99,,,-99.99,meteohub,2013-02-18 22:29:00,
2013-02-18 16:35:00,36.5,27.7,29.77,North,-999,-999.0,-999.0,70,-99.99,,,-99.99,meteohub,2013-02-18 22:35:00,
2013-02-18 16:41:00,36.1,27.3,29.77,North,-999,-999.0,-999.0,70,-99.99,,,-99.99,meteohub,2013-02-18 22:41:00,
2013-02-18 16:47:00,36.1,27.7,29.77,North,-999,-999.0,-999.0,71,-99.99,,,-99.99,meteohub,2013-02-18 22:47:00,
2013-02-18 16:53:00,36.0,27.5,29.78,North,-999,-999.0,-999.0,71,-99.99,,,-99.99,meteohub,2013-02-18 22:53:00,
2013-02-18 17:00:00,36.0,27.1,29.79,North,-999,-999.0,-999.0,70,-99.99,,,-99.99,meteohub,2013-02-18 23:00:00,
2013-02-18 17:06:00,35.8,27.0,29.79,North,-999,-999.0,-999.0,70,-99.99,,,-99.99,meteohub,2013-02-18 23:06:00,
2013-02-18 17:12:00,35.8,27.3,29.80,North,-999,-999.0,-999.0,71,-99.99,,,-99.99,meteohub,2013-02-18 23:12:00,
2013-02-18 17:18:00,35.6,27.1,29.80,North,-999,-999.0,-999.0,71,-99.99,,,-99.99,meteohub,2013-02-18 23:18:00,
2013-02-18 17:24:00,35.2,26.4,29.81,North,-999,-999.0,-999.0,70,-99.99,,,-99.99,meteohub,2013-02-18 23:24:00,
2013-02-18 17:30:00,35.1,26.2,29.81,North,-999,-999.0,-999.0,70,-99.99,,,-99.99,meteohub,2013-02-18 23:30:00,
2013-02-18 17:37:00,34.9,26.1,29.82,North,-999,-999.0,-999.0,70,-99.99,,,-99.99,meteohub,2013-02-18 23:37:00,
2013-02-18 17:42:00,34.7,25.9,29.83,North,-999,-999.0,-999.0,70,-99.99,,,-99.99,meteohub,2013-02-18 23:42:00,
2013-02-18 17:49:00,34.5,25.7,29.83,North,-999,-999.0,-999.0,70,-99.99,,,-99.99,meteohub,2013-02-18 23:49:00,
2013-02-18 17:55:00,34.3,24.8,29.84,North,-999,-999.0,-999.0,68,-99.99,,,-99.99,meteohub,2013-02-18 23:55:00,
2013-02-18 18:01:00,34.2,24.4,29.84,North,-999,-999.0,-999.0,67,-99.99,,,-99.99,meteohub,2013-02-19 00:01:00,
2013-02-18 18:07:00,34.0,24.3,29.84,North,-999,-999.0,-999.0,67,-99.99,,,-99.99,meteohub,2013-02-19 00:07:00,
2013-02-18 18:12:00,33.8,23.7,29.85,North,-999,-999.0,-999.0,66,-99.99,,,-99.99,meteohub,2013-02-19 00:12:00,
2013-02-18 18:17:00,33.8,24.1,29.86,North,-999,-999.0,-999.0,67,-99.99,,,-99.99,meteohub,2013-02-19 00:17:00,
2013-02-18 18:23:00,33.8,24.4,29.86,North,-999,-999.0,-999.0,68,-99.99,,,-99.99,meteohub,2013-02-19 00:23:00,
2013-02-18 18:29:00,33.8,24.1,29.87,North,-999,-999.0,-999.0,67,-99.99,,,-99.99,meteohub,2013-02-19 00:29:00,
2013-02-18 18:35:00,33.6,23.9,29.87,North,-999,-999.0,-999.0,67,-99.99,,,-99.99,meteohub,2013-02-19 00:35:00,
2013-02-18 18:41:00,33.4,24.1,29.88,North,-999,-999.0,-999.0,68,-99.99,,,-99.99,meteohub,2013-02-19 00:41:00,
2013-02-18 18:47:00,33.3,23.9,29.88,North,-999,-999.0,-999.0,68,-99.99,,,-99.99,meteohub,2013-02-19 00:47:00,
2013-02-18 18:52:00,33.1,23.7,29.89,North,-999,-999.0,-999.0,68,-99.99,,,-99.99,meteohub,2013-02-19 00:52:00,
2013-02-18 18:59:00,32.9,23.5,29.90,North,-999,-999.0,-999.0,68,-99.99,,,-99.99,meteohub,2013-02-19 00:59:00,
2013-02-18 19:05:00,32.7,23.4,29.91,North,-999,-999.0,-999.0,68,-99.99,,,-99.99,meteohub,2013-02-19 01:05:00,
2013-02-18 19:12:00,32.5,23.2,29.91,North,-999,-999.0,-999.0,68,-99.99,,,-99.99,meteohub,2013-02-19 01:12:00,
2013-02-18 19:17:00,32.4,23.0,29.91,North,-999,-999.0,-999.0,68,-99.99,,,-99.99,meteohub,2013-02-19 01:17:00,
2013-02-18 19:24:00,32.4,22.6,29.91,North,-999,-999.0,-999.0,67,-99.99,,,-99.99,meteohub,2013-02-19 01:24:00,
2013-02-18 19:30:00,32.2,22.5,29.92,North,-999,-999.0,-999.0,67,-99.99,,,-99.99,meteohub,2013-02-19 01:30:00,
2013-02-18 19:36:00,32.0,22.3,29.92,North,-999,-999.0,-999.0,67,-99.99,,,-99.99,meteohub,2013-02-19 01:36:00,
2013-02-18 19:42:00,32.0,21.9,29.92,North,-999,-999.0,-999.0,66,-99.99,,,-99.99,meteohub,2013-02-19 01:42:00,
2013-02-18 19:47:00,31.8,21.7,29.93,North,-999,-999.0,-999.0,66,-99.99,,,-99.99,meteohub,2013-02-19 01:47:00,
2013-02-18 19:55:00,31.6,21.9,29.93,North,-999,-999.0,-999.0,67,-99.99,,,-99.99,meteohub,2013-02-19 01:55:00,
2013-02-18 20:01:00,31.5,21.7,29.94,North,-999,-999.0,-999.0,67,-99.99,,,-99.99,meteohub,2013-02-19 02:01:00,
2013-02-18 20:07:00,31.3,21.9,29.94,North,-999,-999.0,-999.0,68,-99.99,,,-99.99,meteohub,2013-02-19 02:07:00,
2013-02-18 20:13:00,31.1,21.4,29.94,North,-999,-999.0,-999.0,67,-99.99,,,-99.99,meteohub,2013-02-19 02:13:00,
2013-02-18 20:19:00,31.1,20.7,29.94,North,-999,-999.0,-999.0,65,-99.99,,,-99.99,meteohub,2013-02-19 02:19:00,
2013-02-18 20:25:00,31.1,20.7,29.94,North,-999,-999.0,-999.0,65,-99.99,,,-99.99,meteohub,2013-02-19 02:25:00,
2013-02-18 20:32:00,31.1,20.7,29.95,North,-999,-999.0,-999.0,65,-99.99,,,-99.99,meteohub,2013-02-19 02:32:00,
2013-02-18 20:37:00,30.9,20.1,29.95,North,-999,-999.0,-999.0,64,-99.99,,,-99.99,meteohub,2013-02-19 02:37:00,
2013-02-18 20:42:00,30.9,20.1,29.95,North,-999,-999.0,-999.0,64,-99.99,,,-99.99,meteohub,2013-02-19 02:42:00,
2013-02-18 20:47:00,30.7,19.9,29.95,North,-999,-999.0,-999.0,64,-99.99,,,-99.99,meteohub,2013-02-19 02:47:00,
2013-02-18 20:52:00,30.6,19.8,29.96,North,-999,-999.0,-999.0,64,-99.99,,,-99.99,meteohub,2013-02-19 02:52:00,
2013-02-18 20:57:00,30.4,19.6,29.96,North,-999,-999.0,-999.0,64,-99.99,,,-99.99,meteohub,2013-02-19 02:57:00,
2013-02-18 21:03:00,30.2,19.6,29.96,North,-999,-999.0,-999.0,64,-99.99,,,-99.99,meteohub,2013-02-19 03:03:00,
2013-02-18 21:09:00,30.0,19.8,29.97,North,-999,-999.0,-999.0,65,-99.99,,,-99.99,meteohub,2013-02-19 03:09:00,
2013-02-18 21:15:00,30.0,19.8,29.97,North,-999,-999.0,-999.0,65,-99.99,,,-99.99,meteohub,2013-02-19 03:15:00,
2013-02-18 21:21:00,29.8,19.9,29.97,North,-999,-999.0,-999.0,66,-99.99,,,-99.99,meteohub,2013-02-19 03:21:00,
2013-02-18 21:27:00,29.7,19.8,29.97,North,-999,-999.0,-999.0,66,-99.99,,,-99.99,meteohub,2013-02-19 03:27:00,
2013-02-18 21:32:00,29.7,19.8,29.97,North,-999,-999.0,-999.0,66,-99.99,,,-99.99,meteohub,2013-02-19 03:32:00,
2013-02-18 21:40:00,29.7,19.4,29.99,North,-999,-999.0,-999.0,65,-99.99,,,-99.99,meteohub,2013-02-19 03:40:00,
2013-02-18 21:46:00,29.5,19.2,29.99,North,-999,-999.0,-999.0,65,-99.99,,,-99.99,meteohub,2013-02-19 03:46:00,
2013-02-18 21:52:00,29.5,18.9,29.99,North,-999,-999.0,-999.0,64,-99.99,,,-99.99,meteohub,2013-02-19 03:52:00,
2013-02-18 21:57:00,29.5,18.9,29.99,North,-999,-999.0,-999.0,64,-99.99,,,-99.99,meteohub,2013-02-19 03:57:00,
2013-02-18 22:02:00,29.5,18.9,29.99,North,-999,-999.0,-999.0,64,-99.99,,,-99.99,meteohub,2013-02-19 04:02:00,
2013-02-18 22:07:00,29.3,18.7,30.00,North,-999,-999.0,-999.0,64,-99.99,,,-99.99,meteohub,2013-02-19 04:07:00,
2013-02-18 22:12:00,29.1,18.9,30.00,North,-999,-999.0,-999.0,65,-99.99,,,-99.99,meteohub,2013-02-19 04:12:00,
2013-02-18 22:20:00,28.9,18.3,30.01,North,-999,-999.0,-999.0,64,-99.99,,,-99.99,meteohub,2013-02-19 04:20:00,
2013-02-18 22:26:00,29.1,18.5,30.01,North,-999,-999.0,-999.0,64,-99.99,,,-99.99,meteohub,2013-02-19 04:26:00,
2013-02-18 22:32:00,29.1,18.5,30.01,North,-999,-999.0,-999.0,64,-99.99,,,-99.99,meteohub,2013-02-19 04:32:00,
2013-02-18 22:37:00,29.1,18.1,30.01,North,-999,-999.0,-999.0,63,-99.99,,,-99.99,meteohub,2013-02-19 04:37:00,
2013-02-18 22:45:00,28.9,17.6,30.01,North,-999,-999.0,-999.0,62,-99.99,,,-99.99,meteohub,2013-02-19 04:45:00,
2013-02-18 22:51:00,28.9,18.0,30.01,North,-999,-999.0,-999.0,63,-99.99,,,-99.99,meteohub,2013-02-19 04:51:00,
2013-02-18 22:57:00,28.8,17.8,30.01,North,-999,-999.0,-999.0,63,-99.99,,,-99.99,meteohub,2013-02-19 04:57:00,
2013-02-18 23:00:00,28.8,18.1,30.02,North,-999,-999.0,-999.0,64,-99.99,,,-99.99,meteohub,2013-02-19 05:00:00,
2013-02-18 23:02:00,28.8,18.1,30.02,North,-999,-999.0,-999.0,64,-99.99,,,-99.99,meteohub,2013-02-19 05:02:00,
2013-02-18 23:06:00,28.8,17.8,30.02,North,-999,-999.0,-999.0,63,-99.99,,,-99.99,meteohub,2013-02-19 05:06:00,
2013-02-18 23:09:00,28.8,17.4,30.02,North,-999,-999.0,-999.0,62,-99.99,,,-99.99,meteohub,2013-02-19 05:09:00,
2013-02-18 23:16:00,28.9,16.9,30.02,North,-999,-999.0,-999.0,60,-99.99,,,-99.99,meteohub,2013-02-19 05:16:00,
2013-02-18 23:22:00,28.9,16.3,30.02,North,-999,-999.0,-999.0,59,-99.99,,,-99.99,meteohub,2013-02-19 05:22:00,
2013-02-18 23:27:00,28.9,16.3,30.02,North,-999,-999.0,-999.0,59,-99.99,,,-99.99,meteohub,2013-02-19 05:27:00,
2013-02-18 23:34:00,28.8,16.2,30.03,North,-999,-999.0,-999.0,59,-99.99,,,-99.99,meteohub,2013-02-19 05:34:00,
2013-02-18 23:40:00,28.6,16.2,30.03,North,-999,-999.0,-999.0,59,-99.99,,,-99.99,meteohub,2013-02-19 05:40:00,
2013-02-18 23:46:00,28.4,16.3,30.03,North,-999,-999.0,-999.0,60,-99.99,,,-99.99,meteohub,2013-02-19 05:46:00,
2013-02-18 23:52:00,28.4,16.3,30.03,North,-999,-999.0,-999.0,60,-99.99,,,-99.99,meteohub,2013-02-19 05:52:00,
2013-02-18 23:59:00,28.0,16.3,30.03,North,-999,-999.0,-999.0,61,-99.99,,,-99.99,meteohub,2013-02-19 05:59:00,